Location: Newark
(54.3386°S, 169.8415°W)
Time: 01:55:22
(UTC+00:00)

Transit 2A Rocket - Pass Details

Date: 27 October 2019
Orbit: 594 x 909 km, 66.7° (Epoch: 16 November)

Event Time Altitude Azimuth Distance (km) Brightness Sun altitude
Rises 04:28:32 0° 294° (WNW) 3,305 9.5 15.3°
Reaches altitude 10° 04:30:59 10° 288° (WNW) 2,427 9.3 15.0°
Maximum altitude 04:36:26 47° 214° (SW) 1,150 6.5 14.2°
Drops below altitude 10° 04:42:16 10° 141° (SE) 2,598 7.4 13.3°
Sets 04:44:58 0° 134° (SE) 3,561 8.1 12.9°
